Latest Coastal Weather Observations for Maatsuyker Island

IDT60701

Issued at 5:32 pm EDT Thursday 2 April 2015 (issued every 10 minutes, with the page automatically refreshed every 10 minutes)

About coastal observations | Map of coastal stations | Coastal observations for TAS | Marine services | Other Formats
Station Details ID: 094041 Name: MAATSUYKER ISLAND LIGHTHOUSE Lat: -43.66 Lon: 146.27 Height: 146.5 m
Data from the previous 72 hours. | See also: Recent months at Maatsuyker Island
Date/Time
EDT
Temp

°C
Wind Pressure Rain
since 9am
mm
Weather Cloud Vis
km
Sea
Height
m
Swell
Dir
 
Speed
knots
Gust
knots
hPa Trend Height
m
Period
s
Dir
02/05:30pm 9.7 S 15 19 1023.6 - 0.0 - - - - - - -
02/05:00pm 10.0 N 7 23 1023.2 - 0.0 - - - - - - -
02/04:57pm 10.1 ENE 10 24 1023.1 - 0.0 - - - - - - -
02/04:30pm 11.3 S 25 29 1023.1 - 0.0 - - - - - - -
02/04:00pm 11.0 S 22 28 1023.0 - 0.0 - - - - - - -
02/03:30pm 10.5 S 20 26 1023.1 - 0.0 - - - - - - -
02/03:00pm 11.2 SSE 22 28 1022.9 R 0.0 Distant precip. Partly cloudy 15 3 3.5 12 S
02/02:30pm 10.2 S 26 32 1022.6 - 0.0 - - - - - - -
02/02:00pm 9.4 S 23 29 1022.8 - 0.0 - - - - - - -
02/01:30pm 10.5 S 29 36 1022.4 - 0.0 - - - - - - -
02/01:00pm 10.3 S 29 34 1022.5 - 0.0 - - - - - - -
02/12:30pm 10.4 S 29 35 1022.2 - 0.0 - - - - - - -
02/12:00pm 10.5 S 31 35 1021.9 - 0.0 - - - - - - -
02/11:30am 10.1 S 31 36 1021.6 - 0.0 - - - - - - -
02/11:00am 10.4 S 32 36 1021.0 - 0.0 - - - - - - -
02/10:30am 9.8 S 33 38 1020.9 - 0.0 - - - - - - -
02/10:00am 9.9 S 32 37 1020.5 - 0.0 - - - - - - -
02/09:30am 10.0 S 34 39 1019.8 - 0.0 - - - - - - -
02/09:00am 9.3 S 28 43 1018.6 R 8.0 Distant precip. Partly cloudy 20 3 3.5 9 S
02/08:30am 9.1 SSE 34 45 1018.0 - 8.0 - - - - - - -
02/08:26am 9.2 SSE 36 46 1017.5 - 7.8 - - - - - - -
02/08:00am 9.5 S 41 46 1016.6 - 7.8 - - - - - - -
02/07:30am 9.6 SSE 39 45 1015.8 - 7.8 - - - - - - -
02/07:00am 9.4 S 37 43 1015.1 - 7.8 - - - - - - -
02/06:44am 9.5 SSE 38 42 1015.0 - 7.8 - - - - - - -
02/06:37am 9.2 SE 23 37 1015.0 - 7.8 - - - - - - -
02/06:30am 9.2 E 16 40 1015.0 - 7.8 - - - - - - -
02/06:25am 9.4 SSE 35 40 1014.7 - 7.8 - - - - - - -
02/06:11am 9.1 ESE 18 29 1014.8 - 7.8 - - - - - - -
02/06:00am 9.2 SSE 15 38 1014.4 R 7.8 Fine Mostly cloudy 10 3 3.5 9 S
02/05:57am 9.3 NNE 9 38 1014.2 - 7.8 - - - - - - -
02/05:30am 9.1 SE 27 39 1013.5 - 7.8 - - - - - - -
02/05:08am 9.1 ESE 21 38 1013.0 - 7.8 - - - - - - -
02/05:07am 9.1 SE 25 38 1012.9 - 7.8 - - - - - - -
02/05:04am 9.2 ENE 15 38 1012.9 - 7.8 - - - - - - -
02/05:00am 9.1 SE 22 41 1012.7 - 7.8 - - - - - - -
02/04:45am 9.0 ESE 22 38 1012.4 - 7.6 - - - - - - -
02/04:40am 9.0 E 19 29 1012.3 - 7.6 - - - - - - -
02/04:33am 9.2 NNE 13 46 1012.1 - 7.4 - - - - - - -
02/04:30am 9.4 ENE 20 46 1011.8 - 7.4 - - - - - - -
02/04:29am 9.4 SSE 36 46 1011.5 - 7.4 - - - - - - -
02/04:18am 9.6 SSE 39 43 1011.6 - 7.4 - - - - - - -
02/04:11am 9.4 SE 25 44 1011.8 - 7.4 - - - - - - -
02/04:08am 9.3 E 14 44 1011.8 - 7.4 - - - - - - -
02/04:03am 9.4 SE 33 44 1011.1 - 7.4 - - - - - - -
02/04:01am 9.4 SE 17 42 1011.4 - 7.4 - - - - - - -
02/04:00am 9.4 SE 31 42 1011.2 - 7.4 - - - - - - -
02/03:50am 9.5 SE 31 41 1011.2 - 7.4 - - - - - - -
02/03:46am 9.4 SSE 36 41 1011.2 - 7.4 - - - - - - -
02/03:38am 9.5 SE 23 36 1011.1 - 7.4 - - - - - - -
02/03:37am 9.5 ENE 15 35 1011.2 - 7.4 - - - - - - -
02/03:36am 9.6 NE 14 40 1011.0 - 7.4 - - - - - - -
02/03:30am 9.4 SE 25 40 1010.9 - 7.4 - - - - - - -
02/03:26am 9.4 SE 23 40 1010.8 - 7.4 - - - - - - -
02/03:15am 9.5 SSE 35 40 1010.5 - 7.4 - - - - - - -
02/03:11am 9.6 ESE 17 42 1010.6 - 7.4 - - - - - - -
02/03:10am 9.5 ESE 14 42 1010.5 - 7.4 - - - - - - -
02/03:00am 9.6 SSE 38 43 1010.2 - 7.4 - - - - - - -
02/02:32am 9.7 SE 28 48 1009.7 - 7.4 - - - - - - -
02/02:30am 9.8 SSE 42 52 1009.6 - 7.4 - - - - - - -
02/02:29am 9.7 SSE 42 52 1009.5 - 7.4 - - - - - - -
02/02:00am 9.8 S 46 51 1008.9 - 7.2 - - - - - - -
02/01:30am 10.2 S 45 52 1008.0 - 7.0 - - - - - - -
02/01:10am 10.3 SSE 40 50 1007.7 - 6.6 - - - - - - -
02/01:00am 10.5 S 43 48 1007.3 - 6.4 - - - - - - -
02/12:30am 10.8 SSE 38 46 1007.0 - 5.8 - - - - - - -
02/12:24am 10.9 SSE 37 47 1007.0 - 5.8 - - - - - - -
02/12:21am 10.9 SE 28 49 1006.8 - 5.8 - - - - - - -
02/12:20am 11.0 SSE 39 49 1006.9 - 5.8 - - - - - - -
02/12:00am 11.3 S 44 50 1006.0 - 5.2 - - - - - - -
 
Date/Time
EDT
Temp

°C
Wind Pressure Rain
since 9am
mm
Weather Cloud Vis
km
Sea
Height
m
Swell
Dir
 
Speed
knots
Gust
knots
hPa Trend Height
m
Period
s
Dir
01/11:38pm 11.9 S 43 47 1004.9 - 4.8 - - - - - - -
01/11:35pm 12.2 SSW 28 39 1005.9 - 4.8 - - - - - - -
01/11:30pm 12.2 SSW 25 29 1006.4 - 4.6 - - - - - - -
01/11:00pm 12.0 SSW 31 36 1005.1 - 4.0 - - - - - - -
01/10:47pm 12.2 SSW 33 36 1004.5 - 4.0 - - - - - - -
01/10:44pm 12.8 SW 23 34 1004.6 - 4.0 - - - - - - -
01/10:40pm 13.0 WSW 20 26 1004.5 - 4.0 - - - - - - -
01/10:37pm 12.9 W 18 31 1004.5 - 4.0 - - - - - - -
01/10:30pm 12.8 NW 27 40 1004.0 - 3.8 - - - - - - -
01/10:27pm 12.6 NW 28 42 1003.7 - 3.8 - - - - - - -
01/10:14pm 12.9 NW 40 43 1002.7 - 2.2 - - - - - - -
01/10:10pm 15.4 NNW 29 41 1001.9 - 1.6 - - - - - - -
01/10:00pm 15.3 NNW 28 37 1001.7 - 1.6 - - - - - - -
01/09:47pm 15.3 NNW 26 36 1002.1 - 1.4 - - - - - - -
01/09:30pm 15.1 NNW 27 35 1002.8 - 1.4 - - - - - - -
01/09:00pm 15.2 NNW 26 37 1003.0 - 1.0 - - - - - - -
01/08:46pm 15.1 N 23 33 1003.6 - 1.0 - - - - - - -
01/08:30pm 14.9 NNW 23 31 1004.0 - 1.0 - - - - - - -
01/08:00pm 14.7 NNW 22 30 1005.2 - 0.8 - - - - - - -
01/07:37pm 14.8 N 17 27 1005.3 - 0.4 - - - - - - -
01/07:30pm 14.9 NNW 17 22 1005.7 - 0.4 - - - - - - -
01/07:09pm 15.8 NNW 18 28 1005.9 - 0.0 - - - - - - -
01/07:00pm 16.0 NNW 19 27 1005.5 - 0.0 - - - - - - -
01/06:30pm 16.3 NNW 22 27 1005.3 - 0.0 - - - - - - -
01/06:22pm 16.4 NNW 22 32 1005.3 - 0.0 - - - - - - -
01/06:00pm 16.8 NNW 33 40 1004.9 - 0.0 - - - - - - -
01/05:38pm 17.0 NNW 35 45 1004.4 - 0.0 - - - - - - -
01/05:30pm 17.1 NNW 34 41 1004.5 - 0.0 - - - - - - -
01/05:04pm 17.6 NNW 26 36 1004.9 - 0.0 - - - - - - -
01/05:00pm 17.7 NNW 25 31 1005.2 - 0.0 - - - - - - -
01/04:44pm 17.8 NNW 25 35 1005.1 - 0.0 - - - - - - -
01/04:30pm 17.3 NNW 26 33 1005.5 - 0.0 - - - - - - -
01/04:00pm 17.5 NNW 30 40 1005.9 - 0.0 - - - - - - -
01/03:56pm 17.9 NNW 29 40 1005.8 - 0.0 - - - - - - -
01/03:30pm 17.7 NNW 28 35 1006.1 - 0.0 - - - - - - -
01/03:00pm 17.8 NW 27 39 1006.5 F 0.0 Smoke Cloudy 8 1 3.0 14 SW
01/02:30pm 18.2 NNW 35 42 1006.7 - 0.0 - - - - - - -
01/02:10pm 18.3 NNW 33 43 1006.9 - 0.0 - - - - - - -
01/02:00pm 18.9 NNW 36 45 1006.8 - 0.0 - - - - - - -
01/01:44pm 19.9 NNW 36 48 1006.7 - 0.0 - - - - - - -
01/01:30pm 19.5 NNW 36 44 1007.0 - 0.0 - - - - - - -
01/01:00pm 21.9 NNW 34 45 1007.7 - 0.0 - - - - - - -
01/12:30pm 21.8 NNW 29 41 1008.2 - 0.0 - - - - - - -
01/12:10pm 21.6 NNW 24 40 1008.6 - 0.0 - - - - - - -
01/12:00pm 21.0 NNW 22 32 1009.0 - 0.0 - - - - - - -
01/11:43am 20.9 NNW 21 31 1009.4 - 0.0 - - - - - - -
01/11:30am 20.5 NNW 23 30 1009.8 - 0.0 - - - - - - -
01/11:00am 19.9 NNW 23 28 1010.0 - 0.0 - - - - - - -
01/10:30am 18.9 NNW 24 32 1010.5 - 0.0 - - - - - - -
01/10:00am 18.6 NNW 22 28 1010.9 - 0.0 - - - - - - -
01/09:30am 17.8 NNW 21 28 1011.4 - 0.0 - - - - - - -
01/09:00am 16.7 N 10 21 1012.1 F 0.2 Fine Mostly cloudy 30 <0.5 3.0 12 SW
01/08:30am 17.2 N 14 21 1012.4 - 0.2 - - - - - - -
01/08:00am 15.8 N 10 17 1012.6 - 0.2 - - - - - - -
01/07:30am 15.6 N 10 15 1013.1 - 0.2 - - - - - - -
01/07:00am 15.4 N 15 21 1013.0 - 0.2 - - - - - - -
01/06:30am 14.6 N 13 16 1013.1 - 0.2 - - - - - - -
01/06:00am 14.5 NNW 16 23 1013.5 F 0.2 Fine Clear 30 1 2.5 13 SW
01/05:30am 13.9 NNW 18 23 1013.8 - 0.2 - - - - - - -
01/05:00am 13.6 NNW 13 17 1014.5 - 0.2 - - - - - - -
01/04:30am 13.1 NNW 11 17 1015.3 - 0.2 - - - - - - -
01/04:00am 13.0 NNW 12 17 1015.9 - 0.2 - - - - - - -
01/03:30am 13.1 NNW 12 16 1016.4 - 0.2 - - - - - - -
01/03:00am 13.2 NNW 12 16 1017.2 - 0.2 - - - - - - -
01/02:30am 13.3 NNW 14 19 1017.7 - 0.2 - - - - - - -
01/02:00am 13.3 NNW 16 20 1018.0 - 0.2 - - - - - - -
01/01:30am 13.3 NNW 14 19 1018.2 - 0.2 - - - - - - -
01/01:00am 13.4 NNW 15 19 1018.9 - 0.2 - - - - - - -
01/12:30am 13.4 NNW 17 22 1019.0 - 0.2 - - - - - - -
01/12:00am 13.4 NNW 15 22 1019.6 - 0.2 - - - - - - -
 
Date/Time
EDT
Temp

°C
Wind Pressure Rain
since 9am
mm
Weather Cloud Vis
km
Sea
Height
m
Swell
Dir
 
Speed
knots
Gust
knots
hPa Trend Height
m
Period
s
Dir
31/11:30pm 13.2 NNW 17 21 1019.8 - 0.2 - - - - - - -
31/11:00pm 13.0 NNW 23 27 1019.8 - 0.2 - - - - - - -
31/10:30pm 13.4 NNW 21 26 1020.1 - 0.2 - - - - - - -
31/10:00pm 13.5 NNW 22 27 1020.4 - 0.2 - - - - - - -
31/09:30pm 13.6 NNW 22 27 1020.4 - 0.2 - - - - - - -
31/09:00pm 13.1 NNW 16 21 1020.9 - 0.2 - - - - - - -
31/08:30pm 12.8 NNW 20 27 1021.0 - 0.2 - - - - - - -
31/08:02pm 13.2 NW 19 30 1020.8 - 0.2 - - - - - - -
31/08:00pm 13.5 NNW 17 26 1021.1 - 0.2 - - - - - - -
31/07:30pm 13.0 NW 25 32 1020.6 - 0.2 - - - - - - -
31/07:23pm 13.5 NNW 21 31 1020.6 - 0.2 - - - - - - -
31/07:00pm 13.8 NNW 19 23 1020.7 - 0.2 - - - - - - -
31/06:30pm 14.1 NNW 18 24 1020.6 - 0.2 - - - - - - -
31/06:00pm 14.4 NNW 18 25 1020.3 - 0.2 - - - - - - -
31/05:30pm 14.5 NNW 18 24 1020.2 - 0.2 - - - - - - -
31/05:00pm 14.8 NW 18 25 1020.3 - 0.2 - - - - - - -
31/04:30pm 14.2 NNW 20 27 1020.4 - 0.2 - - - - - - -
31/04:00pm 14.2 NNW 19 24 1020.7 - 0.2 - - - - - - -
31/03:30pm 14.2 NW 20 26 1020.8 - 0.2 - - - - - - -
31/03:00pm 14.0 W 20 29 1020.9 F 0.2 Distant precip. Mostly cloudy 15 1 4.0 13 SW
31/02:30pm 14.1 NNW 19 24 1021.4 - 0.2 - - - - - - -
31/02:00pm 13.6 NNW 19 25 1021.5 - 0.2 - - - - - - -
31/01:30pm 12.7 NNW 24 30 1021.7 - 0.2 - - - - - - -
31/01:00pm 13.1 NNW 22 29 1022.2 - 0.2 - - - - - - -
31/12:30pm 13.6 NNW 22 29 1022.2 - 0.2 - - - - - - -
31/12:00pm 13.3 NNW 22 27 1022.2 - 0.2 - - - - - - -
31/11:30am 13.1 NNW 21 26 1022.4 - 0.0 - - - - - - -
31/11:00am 13.0 NNW 19 24 1022.5 - 0.0 - - - - - - -
31/10:30am 12.8 NNW 17 23 1022.5 - 0.0 - - - - - - -
31/10:00am 12.7 NNW 17 24 1022.7 - 0.0 - - - - - - -
31/09:30am 12.4 NNW 17 25 1022.7 - 0.0 - - - - - - -
31/09:00am 12.3 NNW 12 22 1022.8 R 0.2 Drizzle Mostly cloudy 15 1 4.0 14 SW
31/08:30am 12.1 NNW 17 21 1022.7 - 0.2 - - - - - - -
31/08:00am 12.0 NNW 17 22 1022.5 - 0.2 - - - - - - -
31/07:30am 12.1 NNW 17 21 1022.4 - 0.2 - - - - - - -
31/07:00am 11.8 NNW 18 23 1022.1 - 0.2 - - - - - - -
31/06:30am 12.0 NNW 18 23 1021.7 - 0.0 - - - - - - -
31/06:00am 12.0 NW 15 22 1021.8 F 0.0 Drizzle Cloudy 10 1 3.5 14 SW
31/05:30am 12.1 NNW 18 23 1021.8 - 0.0 - - - - - - -
31/05:00am 12.7 NNW 19 26 1021.6 - 0.0 - - - - - - -
31/04:30am 13.0 NNW 18 22 1021.8 - 0.0 - - - - - - -
31/04:00am 12.9 NNW 22 28 1021.9 - 0.0 - - - - - - -
31/03:30am 12.9 NNW 18 24 1021.8 - 0.0 - - - - - - -
31/03:00am 13.1 NNW 18 23 1022.0 - 0.0 - - - - - - -
31/02:30am 13.0 NNW 17 22 1022.2 - 0.0 - - - - - - -
31/02:00am 13.2 NNW 17 22 1022.1 - 0.0 - - - - - - -
31/01:30am 13.0 NNW 17 22 1022.0 - 0.0 - - - - - - -
31/01:13am 13.0 NNW 17 27 1022.1 - 0.0 - - - - - - -
31/01:00am 13.2 NNW 18 24 1022.0 - 0.0 - - - - - - -
31/12:30am 13.2 NNW 20 24 1022.0 - 0.0 - - - - - - -
31/12:00am 13.4 NNW 23 28 1022.0 - 0.0 - - - - - - -
 
Date/Time
EDT
Temp

°C
Wind Pressure Rain
since 9am
mm
Weather Cloud Vis
km
Sea
Height
m
Swell
Dir
 
Speed
knots
Gust
knots
hPa Trend Height
m
Period
s
Dir
30/11:30pm 12.9 NNW 28 34 1021.9 - 0.0 - - - - - - -
30/11:00pm 13.1 NNW 23 29 1021.9 - 0.0 - - - - - - -
30/10:30pm 13.4 NNW 25 30 1021.8 - 0.0 - - - - - - -
30/10:00pm 12.8 NNW 23 28 1021.8 - 0.0 - - - - - - -
30/09:36pm 13.1 NNW 27 37 1021.4 - 0.0 - - - - - - -
30/09:30pm 13.1 NNW 29 34 1021.3 - 0.0 - - - - - - -
30/09:00pm 13.3 NNW 28 33 1021.2 - 0.0 - - - - - - -
30/08:30pm 13.1 NNW 32 37 1020.8 - 0.0 - - - - - - -
30/08:00pm 12.6 NNW 32 40 1020.4 - 0.0 - - - - - - -
30/07:56pm 13.1 NNW 30 40 1020.2 - 0.0 - - - - - - -
30/07:30pm 13.3 NW 33 38 1020.0 - 0.0 - - - - - - -
30/07:00pm 13.2 NNW 32 38 1019.8 - 0.0 - - - - - - -
30/06:30pm 13.3 NW 33 39 1019.3 - 0.0 - - - - - - -
30/06:00pm 13.1 NW 33 38 1019.0 - 0.0 - - - - - - -

Other Formats:

Comma delimited format used in spreadsheet applications
http://www.bom.gov.au/fwo/IDT60701/IDT60701.94962.axf

JavaScript Object Notation format (JSON) in row-major order
http://www.bom.gov.au/fwo/IDT60701/IDT60701.94962.json